RYR7HZ EGCC-LEAL

Flight info

Callsign RYR7HZ
Flight time N/A
Altitude 37000
Route LISTO P18 TELBA L151 KIDLI UN859 SOPIL DCT BALAN DCT LMG DCT PIMQO DCT AGN DCT ANETO DCT POSSY DCT XIMPE DCT RIMES N860 VLC
Aircraft B738/M-SDE2E3FGHIRWXY/LB1

Departure

Time 2026-05-06 18:20
Airport Manchester Airport (EGCC)

Arrival

Time N/A
Airport Alicante-Elche Miguel Hernández Airport (LEAL)
Time Latitude Longitude Altitude Speed Heading
2026-05-06 17:43 53.36158 -2.26682 254 ft 0 kts 326°
2026-05-06 18:10 53.36155 -2.26678 254 ft 3 kts 326°
2026-05-06 18:11 53.36133 -2.26654 254 ft 4 kts 326°
2026-05-06 18:11 53.36118 -2.26638 254 ft 3 kts 326°
2026-05-06 18:11 53.36097 -2.26604 254 ft 4 kts 279°
2026-05-06 18:11 53.36102 -2.26565 254 ft 4 kts 234°
2026-05-06 18:12 53.36118 -2.26532 254 ft 4 kts 231°
2026-05-06 18:12 53.36134 -2.26497 254 ft 4 kts 231°
2026-05-06 18:12 53.36138 -2.26488 254 ft 0 kts 231°
2026-05-06 18:14 53.36137 -2.26491 254 ft 2 kts 231°
2026-05-06 18:14 53.36089 -2.26583 254 ft 10 kts 216°
2026-05-06 18:14 53.36013 -2.26593 254 ft 12 kts 209°
2026-05-06 18:15 53.35984 -2.26645 254 ft 12 kts 232°
2026-05-06 18:15 53.35946 -2.26724 254 ft 12 kts 231°
2026-05-06 18:15 53.35907 -2.26820 254 ft 17 kts 238°
2026-05-06 18:15 53.35839 -2.26974 254 ft 16 kts 237°
2026-05-06 18:16 53.35790 -2.27106 254 ft 16 kts 230°
2026-05-06 18:16 53.35760 -2.27165 254 ft 16 kts 230°
2026-05-06 18:16 53.35732 -2.27223 254 ft 15 kts 231°
2026-05-06 18:16 53.35666 -2.27360 252 ft 16 kts 231°
2026-05-06 18:17 53.35569 -2.27560 242 ft 26 kts 231°
2026-05-06 18:17 53.35475 -2.27754 238 ft 11 kts 233°
2026-05-06 18:17 53.35457 -2.27887 238 ft 17 kts 260°
2026-05-06 18:17 53.35356 -2.28083 238 ft 24 kts 224°
2026-05-06 18:18 53.35244 -2.28276 231 ft 23 kts 230°
2026-05-06 18:18 53.35144 -2.28481 226 ft 24 kts 231°
2026-05-06 18:18 53.35043 -2.28689 227 ft 23 kts 230°
2026-05-06 18:18 53.34936 -2.28878 225 ft 22 kts 226°
2026-05-06 18:19 53.34832 -2.29048 219 ft 15 kts 212°
2026-05-06 18:19 53.34731 -2.29058 220 ft 15 kts 160°
2026-05-06 18:19 53.34682 -2.28935 224 ft 14 kts 64°
2026-05-06 18:19 53.34744 -2.28797 222 ft 18 kts 52°
2026-05-06 18:20 53.34915 -2.28443 232 ft 73 kts 51°
2026-05-06 18:20 53.35381 -2.27485 242 ft 136 kts 51°
2026-05-06 18:20 53.36045 -2.26136 648 ft 155 kts 52°
2026-05-06 18:20 53.36775 -2.24717 1359 ft 164 kts 51°
2026-05-06 18:21 53.37428 -2.23233 2195 ft 162 kts 70°
2026-05-06 18:21 53.37585 -2.21235 2644 ft 188 kts 99°
2026-05-06 18:21 53.37026 -2.19120 2886 ft 216 kts 131°
2026-05-06 18:21 53.35740 -2.17589 3180 ft 241 kts 149°
2026-05-06 18:22 53.34092 -2.16774 3735 ft 257 kts 177°
2026-05-06 18:22 53.32286 -2.16928 4539 ft 263 kts 185°
2026-05-06 18:22 53.30471 -2.17252 4918 ft 264 kts 186°
2026-05-06 18:22 53.28642 -2.17583 4981 ft 265 kts 186°
2026-05-06 18:23 53.26805 -2.17912 4999 ft 265 kts 186°
2026-05-06 18:23 53.24969 -2.18220 5011 ft 266 kts 186°
2026-05-06 18:23 53.23113 -2.18519 5329 ft 270 kts 186°
2026-05-06 18:23 53.21240 -2.18816 6159 ft 274 kts 187°
2026-05-06 18:24 53.19339 -2.19115 7049 ft 277 kts 187°
2026-05-06 18:24 53.17413 -2.19416 7877 ft 280 kts 187°
2026-05-06 18:24 53.15450 -2.19722 8714 ft 285 kts 187°
2026-05-06 18:24 53.13462 -2.20031 9556 ft 289 kts 187°
2026-05-06 18:25 53.11443 -2.20346 10318 ft 295 kts 187°
2026-05-06 18:25 53.09330 -2.20677 10581 ft 318 kts 187°
2026-05-06 18:25 53.07047 -2.21034 10889 ft 338 kts 187°
2026-05-06 18:25 53.04683 -2.21401 11533 ft 345 kts 187°
2026-05-06 18:26 53.02289 -2.21771 12321 ft 347 kts 187°
2026-05-06 18:26 52.99899 -2.22141 13118 ft 350 kts 187°
2026-05-06 18:26 52.97468 -2.22522 13835 ft 355 kts 187°
2026-05-06 18:26 52.94987 -2.22911 14464 ft 360 kts 187°
2026-05-06 18:27 52.92484 -2.23303 15192 ft 362 kts 187°
2026-05-06 18:27 52.89971 -2.23696 15919 ft 364 kts 187°
2026-05-06 18:27 52.87435 -2.24092 16608 ft 367 kts 187°
2026-05-06 18:27 52.84895 -2.24634 17282 ft 369 kts 193°
2026-05-06 18:28 52.82383 -2.25585 17973 ft 372 kts 195°
2026-05-06 18:28 52.79860 -2.26625 18590 ft 375 kts 196°
2026-05-06 18:28 52.77354 -2.27652 19161 ft 378 kts 195°
2026-05-06 18:28 52.74787 -2.28672 19739 ft 381 kts 195°
2026-05-06 18:29 52.72194 -2.29678 20269 ft 385 kts 195°
2026-05-06 18:29 52.69572 -2.30671 20822 ft 389 kts 193°
2026-05-06 18:29 52.66848 -2.30876 21339 ft 397 kts 173°